Powrót do katalogu

TITAN 3C TRANSTAGE DEB

AktywnyGEO
NORAD 33509·DEBRIS·🇺🇸 United States

Wystrzelony Sep 26, 1968 z Cape Canaveral Space Force Station

Loading…

TLE

ŚwieżeSource: Space-Track

Epoka: Sep 14, 2026, 00:14 UTC

1 33509U 68081K   26257.01024561 -.00000082  00000-0  00000-0 0  9995
2 33509   2.0572  56.5998 0054227  15.0406 319.3987  1.02091046 80658

Śledź TITAN 3C TRANSTAGE DEB w czasie rzeczywistym z AllMySat

Download on the App Store